Location: Walnut Point State Park
(39.6958°N, 88.0345°W)
Time: 17:17:46
(UTC-05:00)

Amateur Radio Satellites - All Passes

Search period start: 27 August 2016 16:47
Search period end: 28 August 2016 16:47
Location: Walnut Point State Park, 39.6958°N, 88.0345°W

Satellite Date Start Highest point End Downlink Frequencies (MHz)
Time Altitude Azimuth
NOAA 18 27 Aug 16:48:07 16:50:01 12° 57° (ENE) 16:51:54 137.9125
SWISSCUBE 27 Aug 16:55:47 16:57:43 12° 299° (WNW) 16:59:40 437.505
CUBESAT XI-V 27 Aug 17:08:53 17:12:15 19° 93° (E) 17:15:37 437.345
Cosmos 2491 27 Aug 17:16:17 17:23:04 26° 82° (E) 17:29:52 435.465 / 435.565
KKS-1 27 Aug 17:21:17 17:25:37 50° 287° (WNW) 17:29:54 437.445
MOZHAYETS 4 27 Aug 17:25:54 17:30:03 35° 289° (WNW) 17:34:13
Cubesat XI-IV 27 Aug 17:34:27 17:39:07 32° 67° (ENE) 17:43:46 437.490
GOMX 1 27 Aug 17:34:27 17:38:48 29° 67° (ENE) 17:43:22 467.674
YUBILEINY 27 Aug 17:34:38 17:43:23 66° 80° (E) 17:52:00 435.215
HORYU 2 27 Aug 17:40:47 17:44:58 40° 261° (W) 17:49:11 437.375
DOVE 4 27 Aug 17:43:13 17:46:32 17° 63° (ENE) 17:49:55 437.250
CUTE-I 27 Aug 17:46:01 17:50:58 40° 69° (ENE) 17:55:55 437.470
NOAA 15 27 Aug 17:47:37 17:52:42 53° 72° (ENE) 17:57:50 137.62
AO-7 27 Aug 17:52:55 17:56:15 13° 272° (W) 17:59:36 29.400- 29.500
Cosmos 2504 27 Aug 17:55:24 18:01:31 29° 71° (ENE) 18:07:32 435.465 / 435.565
BRITE-PL 27 Aug 17:56:58 18:01:46 82° 259° (WSW) 18:07:01 437.365/2234.400
STARS 27 Aug 17:57:46 18:01:54 41° 289° (WNW) 18:06:00 437.465
BEESAT 2 27 Aug 17:58:10 18:00:09 13° 43° (NE) 18:02:06 435.950
LilacSat-2 27 Aug 18:06:45 18:10:31 56° 75° (ENE) 18:14:17 437.200
HO-68 27 Aug 18:12:35 18:16:49 17° 55° (NE) 18:21:03 435.675
BEESAT 3 27 Aug 18:15:27 18:19:03 31° 52° (NE) 18:22:36 437.485
NOAA 18 27 Aug 18:24:15 18:29:48 83° 75° (ENE) 18:35:21 137.9125
CINEMA 3 27 Aug 18:26:20 18:28:26 13° 62° (ENE) 18:30:33 145.822/145.860
CUBESAT XI-V 27 Aug 18:45:22 18:49:46 41° 288° (WNW) 18:54:11 437.345
Cosmos 2491 27 Aug 19:10:33 19:19:10 64° 281° (W) 19:27:52 435.465 / 435.565
CANX-2 27 Aug 19:11:15 19:14:41 25° 69° (ENE) 19:18:07 2200.000
GOMX 1 27 Aug 19:12:10 19:16:43 34° 265° (W) 19:21:32 467.674
Cubesat XI-IV 27 Aug 19:14:23 19:19:07 32° 264° (W) 19:23:51 437.490
CUTE 1.7 + AOD 2 27 Aug 19:17:21 19:20:48 25° 69° (ENE) 19:24:16 437.475
DOVE 4 27 Aug 19:18:34 19:23:38 62° 260° (W) 19:28:55 437.250
AAUSAT CUBESAT 2 27 Aug 19:23:53 19:25:01 11° 64° (ENE) 19:26:10 437.432
CUTE-I 27 Aug 19:26:49 19:31:07 25° 265° (W) 19:35:26 437.470
NOAA 15 27 Aug 19:29:17 19:32:48 18° 268° (W) 19:36:19 137.62
COMPASS 1 27 Aug 19:30:10 19:32:50 17° 67° (ENE) 19:35:31 437.405
YUBILEINY 27 Aug 19:32:40 19:39:22 25° 279° (W) 19:46:03 435.215
BEESAT 2 27 Aug 19:34:26 19:38:26 70° 240° (WSW) 19:42:23 435.950
PCSat 27 Aug 19:40:34 19:43:28 14° 42° (NE) 19:46:22 145.827
Cosmos 2504 27 Aug 19:48:16 19:55:06 47° 270° (W) 20:01:53 435.465 / 435.565
BEESAT 3 27 Aug 19:53:29 19:56:31 21° 248° (WSW) 19:59:32 437.485
HO-68 27 Aug 19:56:18 20:03:30 86° 74° (ENE) 20:10:44 435.675
CINEMA 3 27 Aug 19:59:52 20:04:54 79° 259° (WSW) 20:09:54 145.822/145.860
STRAND 1 27 Aug 20:03:01 20:08:05 62° 102° (ESE) 20:13:08 437.568
Oscar 11 27 Aug 20:04:45 20:06:55 14° 64° (ENE) 20:09:03 145.826/435.025
AIST 2 27 Aug 20:08:46 20:11:00 14° 43° (NE) 20:13:14 435.215
NOAA 18 27 Aug 20:09:04 20:11:04 12° 270° (W) 20:13:04 137.9125
FUNcube-1 27 Aug 20:11:37 20:14:16 16° 66° (ENE) 20:16:52 145.935
UWE-3 27 Aug 20:16:56 20:20:55 30° 70° (ENE) 20:24:49 435.000/436.395/437.385
CUBEBUG 2 27 Aug 20:18:38 20:23:08 47° 73° (ENE) 20:27:32 437.445
SEEDS 27 Aug 20:24:37 20:28:46 77° 257° (WSW) 20:32:56 437.485
AIST 1 27 Aug 20:25:37 20:29:57 53° 80° (E) 20:34:13
ZACube-1 27 Aug 20:31:48 20:35:34 27° 70° (ENE) 20:39:16 437.345
CANX-2 27 Aug 20:46:57 20:50:27 25° 265° (W) 20:53:58 2200.000
CUTE 1.7 + AOD 2 27 Aug 20:53:05 20:56:33 25° 265° (W) 21:00:03 437.475
AAUSAT CUBESAT 2 27 Aug 20:55:54 20:59:57 61° 260° (W) 21:04:02 437.432
DELFI C3 27 Aug 21:00:46 21:03:45 21° 69° (ENE) 21:06:44 145.870
COMPASS 1 27 Aug 21:04:16 21:08:05 37° 262° (W) 21:11:57 437.405
Cosmos 2491 27 Aug 21:15:21 21:18:00 11° 303° (WNW) 21:20:40 435.465 / 435.565
HUMSAT D 27 Aug 21:19:06 21:21:53 18° 67° (ENE) 21:24:39 437.325/437.525
PCSat 27 Aug 21:22:16 21:27:43 82° 60° (ENE) 21:33:08 145.827
AUBIESAT-1 27 Aug 21:28:52 21:29:41 10° 56° (NE) 21:30:29 437.475
M-CUBED/EXP-1 PRIME 27 Aug 21:32:41 21:35:12 15° 58° (ENE) 21:37:44 437.505
Oscar 11 27 Aug 21:38:22 21:42:35 53° 261° (W) 21:46:48 145.826/435.025
PRISM 27 Aug 21:39:11 21:43:23 74° 104° (ESE) 21:47:32 437.425
STRAND 1 27 Aug 21:43:41 21:46:44 16° 298° (WNW) 21:49:48 437.568
AIST 2 27 Aug 21:45:46 21:49:57 71° 240° (WSW) 21:54:06 435.215
FUNcube-1 27 Aug 21:45:49 21:50:07 48° 261° (W) 21:54:22 145.935
HO-68 27 Aug 21:47:51 21:52:00 16° 270° (W) 21:56:11 435.675
GONETS M04 27 Aug 21:50:49 21:57:09 21° 64° (ENE) 22:03:24
UWE-3 27 Aug 21:53:34 21:57:19 25° 265° (W) 22:01:02 435.000/436.395/437.385
CUBEBUG 2 27 Aug 21:56:58 21:59:56 17° 268° (W) 22:02:52 437.445
TIGRISAT 27 Aug 22:02:46 22:04:06 11° 90° (E) 22:05:26 435.000
AIST 1 27 Aug 22:05:16 22:07:00 12° 276° (W) 22:08:44
ZACube-1 27 Aug 22:08:01 22:11:46 26° 264° (W) 22:15:28 437.345
UNISAT 6 27 Aug 22:29:31 22:33:05 25° 95° (E) 22:36:37 437.425
DELFI C3 27 Aug 22:35:07 22:38:26 26° 264° (W) 22:41:48 145.870
Cosmos 2499 27 Aug 22:52:19 22:58:38 34° 73° (ENE) 23:04:58 435.465 / 435.565
HUMSAT D 27 Aug 22:53:22 22:57:14 36° 262° (W) 23:01:04 437.325/437.525
O/OREOS (USA 219) 27 Aug 22:53:41 22:56:51 18° 56° (ENE) 22:59:59 437.305
VELOX 1 27 Aug 22:55:14 22:58:23 19° 66° (ENE) 23:01:33 145.980
CUBEBUG 1 27 Aug 22:56:38 23:00:08 24° 68° (ENE) 23:03:39 437.445
SO-50 27 Aug 22:57:32 23:01:30 25° 112° (ESE) 23:05:27 436.795
AUBIESAT-1 27 Aug 22:58:44 23:03:22 85° 71° (ENE) 23:08:02 437.475
M-CUBED/EXP-1 PRIME 27 Aug 23:04:29 23:09:07 70° 254° (WSW) 23:13:51 437.505
ANTELSAT 27 Aug 23:05:57 23:10:14 67° 102° (ESE) 23:14:27 437.575/2403.000
PCSat 27 Aug 23:08:16 23:10:20 12° 258° (WSW) 23:12:24 145.827
DX 1 27 Aug 23:12:08 23:15:18 20° 66° (ENE) 23:18:29 434.975-435.025
SPROUT 27 Aug 23:14:51 23:17:21 15° 65° (ENE) 23:19:51 437.525
50 SAT 27 Aug 23:23:07 23:26:19 32° 72° (ENE) 23:29:33 437.505
ESTCUBE 1 27 Aug 23:34:56 23:39:24 85° 256° (WSW) 23:43:55 437.505/2401.250
TIGRISAT 27 Aug 23:36:58 23:41:10 56° 286° (WNW) 23:45:18 435.000
DUCHIFAT 1 27 Aug 23:39:46 23:42:42 18° 94° (E) 23:45:36 145.980
DANDE 27 Aug 23:40:23 23:41:05 11° 89° (E) 23:41:47 436.750
QB50P2 27 Aug 23:42:13 23:45:40 24° 95° (E) 23:49:04 145.880/145.840
AISAT 27 Aug 23:42:43 23:47:07 66° 74° (ENE) 23:51:34 437.250
POLYITAN 1 27 Aug 23:44:44 23:48:11 24° 95° (E) 23:51:36 437.675
GONETS M04 27 Aug 23:46:08 23:55:02 82° 265° (W) 00:03:52
UKube-1 27 Aug 23:51:19 23:55:21 40° 71° (ENE) 23:59:25 .
NANOSAT C BR1 27 Aug 23:53:05 23:56:43 28° 96° (E) 00:00:20 145.865
UNISAT 6 28 Aug 00:06:11 00:09:43 26° 291° (WNW) 00:13:14 437.425
JAS-2 28 Aug 00:13:31 00:19:44 34° 96° (E) 00:26:28 435.910
CUSAT 1 28 Aug 00:22:16 00:24:46 25° 289° (WNW) 00:27:43 437.405
VELOX 1 28 Aug 00:30:25 00:34:33 38° 262° (W) 00:38:44 145.980
O/OREOS (USA 219) 28 Aug 00:32:05 00:36:30 47° 254° (WSW) 00:40:55 437.305
CUBEBUG 1 28 Aug 00:32:23 00:36:15 30° 263° (W) 00:40:10 437.445
RS-15 28 Aug 00:32:27 00:42:40 40° 106° (ESE) 00:53:20 29.354- 29.394
BUGSAT 1 28 Aug 00:33:47 00:37:28 31° 97° (E) 00:41:05 437.445
QB50P1 28 Aug 00:36:48 00:41:02 83° 283° (WNW) 00:45:14 145.935-145.965
SO-50 28 Aug 00:37:13 00:41:48 39° 309° (NW) 00:46:19 436.795
ANTELSAT 28 Aug 00:45:17 00:46:21 11° 298° (WNW) 00:47:26 437.575/2403.000
Cosmos 2499 28 Aug 00:45:19 00:51:43 39° 272° (W) 00:58:13 435.465 / 435.565
POPSAT HIP 1 28 Aug 00:46:53 00:51:04 64° 286° (WNW) 00:55:12 437.405
DX 1 28 Aug 00:47:12 00:51:14 36° 262° (W) 00:55:18 434.975-435.025
SPROUT 28 Aug 00:48:43 00:52:52 47° 260° (W) 00:57:04 437.525
50 SAT 28 Aug 00:58:05 01:00:00 14° 267° (W) 01:01:55 437.505
BEESAT 28 Aug 01:04:29 01:05:58 11° 61° (ENE) 01:07:26 436.000
TISAT 1 28 Aug 01:06:58 01:11:07 56° 74° (ENE) 01:15:18 437.305
DUCHIFAT 1 28 Aug 01:14:41 01:18:29 34° 289° (WNW) 01:22:15 145.980
QB50P2 28 Aug 01:17:51 01:21:24 27° 291° (WNW) 01:24:56 145.880/145.840
PHONESAT 2.4 28 Aug 01:18:20 01:20:35 19° 151° (SSE) 01:22:49 2401.200-2431.200
POLYITAN 1 28 Aug 01:20:24 01:23:55 26° 291° (WNW) 01:27:25 437.675
DANDE 28 Aug 01:22:18 01:23:39 13° 289° (WNW) 01:25:02 436.750
AISAT 28 Aug 01:22:55 01:24:01 11° 270° (W) 01:25:05 437.250
UKube-1 28 Aug 01:28:44 01:31:33 17° 267° (W) 01:34:23 .
NANOSAT C BR1 28 Aug 01:29:00 01:32:19 23° 292° (WNW) 01:35:37 145.865
Gurwin Techsat 1B 28 Aug 01:40:46 01:43:29 14° 90° (E) 01:46:10 435.225
GONETS M04 28 Aug 01:45:57 01:50:21 15° 284° (WNW) 01:54:45
ITUPSAT 1 28 Aug 01:48:58 01:53:07 31° 69° (ENE) 01:57:18 437.325
JAS-2 28 Aug 01:58:20 02:04:47 46° 290° (WNW) 02:11:51 435.910
Oscar 19 28 Aug 02:06:03 02:11:11 55° 101° (E) 02:16:14 437.125/150
BUGSAT 1 28 Aug 02:09:35 02:12:37 20° 293° (WNW) 02:15:38 437.445
SWISSCUBE 28 Aug 02:21:13 02:25:57 76° 76° (ENE) 02:30:42 437.505
BEESAT 28 Aug 02:38:18 02:43:04 80° 258° (WSW) 02:47:51 436.000
RS-15 28 Aug 02:43:05 02:54:31 62° 309° (NW) 03:06:37 29.354- 29.394
KKS-1 28 Aug 02:44:21 02:46:25 13° 63° (ENE) 02:48:30 437.445
TISAT 1 28 Aug 02:45:38 02:47:06 12° 269° (W) 02:48:34 437.305
MOZHAYETS 4 28 Aug 02:50:50 02:54:03 19° 66° (ENE) 02:57:16
PHONESAT 2.4 28 Aug 02:53:39 02:56:38 74° 168° (SSE) 02:59:38 2401.200-2431.200
Gurwin Techsat 1B 28 Aug 03:18:37 03:23:54 69° 286° (WNW) 03:29:10 435.225
STARS 28 Aug 03:18:57 03:21:27 15° 64° (ENE) 03:23:56 437.465
ITAMSAT 1 28 Aug 03:20:59 03:25:47 37° 98° (E) 03:30:33 435.822/435.867
ITUPSAT 1 28 Aug 03:26:57 03:30:56 26° 264° (W) 03:34:55 437.325
Cosmos 2491 28 Aug 03:28:53 03:31:41 12° 57° (ENE) 03:34:28 435.465 / 435.565
Oscar 19 28 Aug 03:46:31 03:50:02 19° 297° (WNW) 03:53:32 437.125/150
AO-7 28 Aug 03:56:44 04:04:25 40° 99° (E) 04:12:02 29.400- 29.500
SWISSCUBE 28 Aug 04:03:43 04:04:15 10° 270° (W) 04:04:47 437.505
CUBESAT XI-V 28 Aug 04:11:55 04:14:57 18° 65° (ENE) 04:18:00 437.345
KKS-1 28 Aug 04:18:01 04:22:27 62° 259° (W) 04:26:55 437.445
MOZHAYETS 4 28 Aug 04:26:38 04:30:54 40° 262° (W) 04:35:13
PHONESAT 2.4 28 Aug 04:30:02 04:33:02 74° 1° (N) 04:36:02 2401.200-2431.200
AO-85 28 Aug 04:35:40 04:40:01 26° 112° (ESE) 04:44:12 145.980
YUBILEINY 28 Aug 04:43:35 04:47:24 14° 75° (ENE) 04:51:14 435.215
STARS 28 Aug 04:53:02 04:57:21 52° 260° (W) 05:01:42 437.465
ITAMSAT 1 28 Aug 05:00:49 05:05:02 26° 294° (WNW) 05:09:16 435.822/435.867
RS-15 28 Aug 05:01:00 05:10:16 25° 339° (NNW) 05:19:50 29.354- 29.394
Cosmos 2491 28 Aug 05:21:44 05:30:31 64° 79° (E) 05:39:15 435.465 / 435.565
HORYU 2 28 Aug 05:32:16 05:36:24 38° 98° (E) 05:40:31 437.375
CUBESAT XI-V 28 Aug 05:47:32 05:51:57 46° 261° (W) 05:56:24 437.345
AO-7 28 Aug 05:49:27 05:57:12 46° 297° (WNW) 06:04:56 29.400- 29.500
Cubesat XI-IV 28 Aug 05:54:08 05:56:20 12° 90° (E) 05:58:31 437.490
BRITE-PL 28 Aug 06:02:27 06:07:48 40° 96° (E) 06:12:59 437.365/2234.400
NOAA 15 28 Aug 06:04:17 06:08:18 21° 94° (E) 06:12:17 137.62
CUTE-I 28 Aug 06:04:53 06:08:14 17° 92° (E) 06:11:33 437.470
PHONESAT 2.4 28 Aug 06:06:26 06:09:20 49° 200° (SSW) 06:12:15 2401.200-2431.200
AO-85 28 Aug 06:15:16 06:20:18 44° 307° (NW) 06:25:06 145.980
Cosmos 2504 28 Aug 06:32:44 06:39:26 27° 84° (E) 06:45:49 435.465 / 435.565
YUBILEINY 28 Aug 06:33:49 06:42:37 78° 94° (E) 06:51:27 435.215
NOAA 18 28 Aug 06:47:28 06:52:31 37° 98° (E) 06:57:31 137.9125
HORYU 2 28 Aug 07:09:34 07:12:40 19° 294° (WNW) 07:15:46 437.375
GOMX 1 28 Aug 07:14:19 07:19:46 85° 101° (ESE) 07:24:55 467.674
LilacSat-2 28 Aug 07:14:58 07:18:45 83° 282° (WNW) 07:22:30 437.200
STRAND 1 28 Aug 07:17:59 07:23:05 81° 74° (ENE) 07:28:12 437.568
DOVE 4 28 Aug 07:18:55 07:23:41 41° 97° (E) 07:28:09 437.250
Cosmos 2491 28 Aug 07:19:42 07:26:37 27° 278° (W) 07:33:34 435.465 / 435.565
RS-15 28 Aug 07:19:53 07:28:55 22° 15° (NNE) 07:37:58 29.354- 29.394
HO-68 28 Aug 07:27:00 07:31:12 16° 90° (E) 07:35:20 435.675
ISS 28 Aug 07:27:30 07:28:45 12° 129° (SE) 07:30:01 145.825
SO-50 28 Aug 07:29:35 07:33:01 20° 44° (NE) 07:36:22 436.795
Cubesat XI-IV 28 Aug 07:31:37 07:36:57 76° 286° (WNW) 07:42:15 437.490
BRITE-PL 28 Aug 07:41:13 07:46:02 29° 293° (WNW) 07:50:46 437.365/2234.400
NOAA 15 28 Aug 07:43:12 07:48:16 46° 289° (WNW) 07:53:18 137.62
CUTE-I 28 Aug 07:43:25 07:48:38 58° 288° (WNW) 07:53:50 437.470
PHONESAT 2.4 28 Aug 07:44:18 07:45:14 11° 214° (SSW) 07:46:11 2401.200-2431.200
CINEMA 3 28 Aug 07:56:31 08:00:14 25° 94° (E) 08:03:49 145.822/145.860
SEEDS 28 Aug 08:10:06 08:13:03 18° 93° (E) 08:16:01 437.485
Cosmos 2504 28 Aug 08:23:59 08:32:19 59° 281° (W) 08:40:07 435.465 / 435.565
PRISM 28 Aug 08:27:37 08:31:30 45° 73° (ENE) 08:35:27 437.425
NOAA 18 28 Aug 08:28:24 08:33:01 29° 295° (WNW) 08:37:36 137.9125
CANX-2 28 Aug 08:31:47 08:35:57 55° 100° (E) 08:40:07 2200.000
YUBILEINY 28 Aug 08:33:49 08:40:21 22° 295° (WNW) 08:46:56 435.215
CUTE 1.7 + AOD 2 28 Aug 08:37:47 08:41:57 55° 100° (E) 08:46:07 437.475
AAUSAT CUBESAT 2 28 Aug 08:39:29 08:42:40 21° 94° (E) 08:45:51 437.432
COMPASS 1 28 Aug 08:47:37 08:51:25 33° 97° (E) 08:55:13 437.405
AIST 1 28 Aug 08:54:07 08:57:58 32° 91° (E) 09:01:52
GOMX 1 28 Aug 08:54:37 08:57:00 13° 300° (WNW) 08:59:19 467.674
DOVE 4 28 Aug 08:57:14 09:01:01 22° 295° (WNW) 09:04:40 437.250
TIGRISAT 28 Aug 09:01:14 09:02:35 11° 62° (ENE) 09:03:55 435.000
ISS 28 Aug 09:01:32 09:04:48 70° 324° (NW) 09:08:05 145.825
STRAND 1 28 Aug 09:01:44 09:02:49 11° 271° (W) 09:03:55 437.568
SO-50 28 Aug 09:09:21 09:13:48 51° 243° (WSW) 09:18:07 436.795
CUSAT 1 28 Aug 09:11:11 09:16:06 21° 70° (ENE) 09:21:35 437.405
HO-68 28 Aug 09:12:28 09:19:41 85° 287° (WNW) 09:26:50 435.675
BEESAT 2 28 Aug 09:26:01 09:29:10 23° 112° (ESE) 09:32:21 435.950
Oscar 11 28 Aug 09:26:33 09:30:17 28° 96° (E) 09:34:00 145.826/435.025
UNISAT 6 28 Aug 09:27:33 09:31:08 23° 68° (ENE) 09:34:39 437.425
CINEMA 3 28 Aug 09:33:31 09:37:20 27° 292° (WNW) 09:40:59 145.822/145.860
RS-15 28 Aug 09:33:33 09:45:30 50° 46° (NE) 09:57:15 29.354- 29.394
FUNcube-1 28 Aug 09:34:48 09:38:30 31° 97° (E) 09:42:11 145.935
BEESAT 3 28 Aug 09:42:02 09:45:55 75° 120° (ESE) 09:49:52 437.485
UWE-3 28 Aug 09:43:09 09:47:20 70° 101° (E) 09:51:27 435.000/436.395/437.385
SEEDS 28 Aug 09:45:01 09:48:50 34° 289° (WNW) 09:52:40 437.485
CUBEBUG 2 28 Aug 09:46:51 09:51:04 68° 284° (WNW) 09:55:09 437.445
ZACube-1 28 Aug 09:56:20 10:00:28 62° 100° (E) 10:04:33 437.345
ANTELSAT 28 Aug 10:03:26 10:07:55 53° 73° (ENE) 10:12:20 437.575/2403.000
PRISM 28 Aug 10:05:02 10:07:03 13° 268° (W) 10:09:05 437.425
CANX-2 28 Aug 10:09:26 10:11:20 13° 296° (WNW) 10:13:15 2200.000
DELFI C3 28 Aug 10:12:44 10:16:28 37° 98° (E) 10:20:12 145.870
DANDE 28 Aug 10:13:13 10:17:42 24° 75° (ENE) 10:23:06 436.750
AAUSAT CUBESAT 2 28 Aug 10:14:32 10:18:08 29° 290° (WNW) 10:21:46 437.432
CUTE 1.7 + AOD 2 28 Aug 10:15:26 10:17:18 13° 296° (WNW) 10:19:11 437.475
COMPASS 1 28 Aug 10:23:44 10:26:44 19° 293° (WNW) 10:29:44 437.405
PCSat 28 Aug 10:24:16 10:25:37 11° 102° (ESE) 10:26:57 145.827
DUCHIFAT 1 28 Aug 10:31:51 10:33:56 13° 64° (ENE) 10:36:00 145.980
AIST 1 28 Aug 10:32:25 10:35:37 20° 287° (WNW) 10:38:52
TIGRISAT 28 Aug 10:34:03 10:38:40 75° 257° (WSW) 10:43:12 435.000
QB50P2 28 Aug 10:34:37 10:37:28 18° 66° (ENE) 10:40:18 145.880/145.840
POLYITAN 1 28 Aug 10:37:06 10:39:58 18° 66° (ENE) 10:42:51 437.675
HUMSAT D 28 Aug 10:37:17 10:41:02 33° 98° (E) 10:44:44 437.325/437.525
ISS 28 Aug 10:39:39 10:41:45 16° 342° (NNW) 10:43:51 145.825
NANOSAT C BR1 28 Aug 10:44:49 10:47:55 20° 67° (ENE) 10:51:02 145.865
CUSAT 1 28 Aug 10:51:50 10:58:24 73° 263° (W) 11:06:10 437.405
GONETS M04 28 Aug 10:51:55 10:58:24 24° 80° (E) 11:04:53
HO-68 28 Aug 11:02:13 11:06:21 17° 306° (NW) 11:10:29 435.675
Oscar 11 28 Aug 11:02:49 11:06:17 24° 292° (WNW) 11:09:45 145.826/435.025
BEESAT 2 28 Aug 11:03:22 11:06:50 29° 309° (NW) 11:10:22 435.950
UNISAT 6 28 Aug 11:03:28 11:07:39 34° 263° (W) 11:11:46 437.425
FUNcube-1 28 Aug 11:11:32 11:14:33 20° 292° (WNW) 11:17:33 145.935
BEESAT 3 28 Aug 11:22:25 11:24:05 12° 318° (NW) 11:25:44 437.485
BUGSAT 1 28 Aug 11:22:56 11:26:08 21° 67° (ENE) 11:29:20 437.445
QB50P1 28 Aug 11:27:57 11:32:10 64° 75° (ENE) 11:36:25 145.935-145.965
Cosmos 2499 28 Aug 11:27:57 11:34:47 31° 86° (E) 11:41:12 435.465 / 435.565
ESTCUBE 1 28 Aug 11:28:54 11:32:23 21° 94° (E) 11:35:50 437.505/2401.250
ZACube-1 28 Aug 11:35:05 11:36:12 11° 297° (WNW) 11:37:20 437.345
AISAT 28 Aug 11:35:27 11:37:37 13° 91° (E) 11:39:44 437.250
POPSAT HIP 1 28 Aug 11:37:58 11:42:15 83° 76° (ENE) 11:46:33 437.405
ANTELSAT 28 Aug 11:42:29 11:44:53 14° 268° (W) 11:47:17 437.575/2403.000
AIST 2 28 Aug 11:42:47 11:46:17 28° 113° (ESE) 11:49:49 435.215
RS-15 28 Aug 11:46:23 11:58:11 55° 249° (WSW) 12:09:44 29.354- 29.394
DELFI C3 28 Aug 11:48:31 11:51:00 16° 293° (WNW) 11:53:29 145.870
DANDE 28 Aug 11:55:01 12:00:28 52° 264° (W) 12:07:26 436.750
PCSat 28 Aug 12:02:44 12:08:10 89° 305° (NW) 12:13:38 145.827
DUCHIFAT 1 28 Aug 12:04:59 12:09:09 53° 260° (W) 12:13:20 145.980
QB50P2 28 Aug 12:08:56 12:12:57 39° 262° (W) 12:16:59 145.880/145.840
JAS-2 28 Aug 12:10:22 12:15:32 77° 74° (ENE) 12:21:04 435.910
POLYITAN 1 28 Aug 12:11:27 12:15:28 39° 262° (W) 12:19:30 437.675
AUBIESAT-1 28 Aug 12:13:23 12:17:25 71° 108° (ESE) 12:21:06 437.475
HUMSAT D 28 Aug 12:13:35 12:16:24 18° 293° (WNW) 12:19:13 437.325/437.525
ISS 28 Aug 12:18:36 12:19:19 10° 2° (N) 12:20:02 145.825
NANOSAT C BR1 28 Aug 12:19:32 12:23:24 34° 262° (W) 12:27:18 145.865
M-CUBED/EXP-1 PRIME 28 Aug 12:19:43 12:23:50 77° 288° (WNW) 12:27:35 437.505
VELOX 1 28 Aug 12:21:02 12:25:16 40° 99° (E) 12:29:26 145.980
CUBEBUG 1 28 Aug 12:21:07 12:25:27 51° 100° (E) 12:29:44 437.445
50 SAT 28 Aug 12:25:05 12:28:36 44° 100° (E) 12:32:07 437.505
SPROUT 28 Aug 12:35:37 12:39:22 29° 96° (E) 12:43:05 437.525
DX 1 28 Aug 12:35:52 12:39:59 38° 99° (E) 12:44:04 434.975-435.025
CUSAT 1 28 Aug 12:37:18 12:39:42 12° 276° (W) 12:42:13 437.405
GONETS M04 28 Aug 12:45:36 12:54:18 70° 280° (W) 13:03:08
BUGSAT 1 28 Aug 12:57:29 13:01:18 32° 263° (W) 13:05:07 437.445
Gurwin Techsat 1B 28 Aug 13:00:35 13:04:35 22° 65° (ENE) 13:08:36 435.225
ESTCUBE 1 28 Aug 13:05:07 13:09:15 35° 290° (WNW) 13:13:21 437.505/2401.250
O/OREOS (USA 219) 28 Aug 13:05:18 13:08:40 21° 101° (E) 13:12:03 437.305
QB50P1 28 Aug 13:07:55 13:08:21 10° 270° (W) 13:08:46 145.935-145.965
AO-85 28 Aug 13:08:44 13:11:28 16° 42° (NE) 13:14:05 145.980
AO-7 28 Aug 13:09:39 13:11:43 11° 43° (NE) 13:13:47 29.400- 29.500
AISAT 28 Aug 13:10:01 13:14:23 54° 287° (WNW) 13:18:43 437.250
UKube-1 28 Aug 13:14:42 13:19:04 84° 103° (ESE) 13:23:23 .
Cosmos 2499 28 Aug 13:19:39 13:27:32 51° 282° (WNW) 13:34:54 435.465 / 435.565
AIST 2 28 Aug 13:21:12 13:24:43 27° 310° (NW) 13:28:16 435.215
Oscar 19 28 Aug 13:21:55 13:27:03 74° 74° (ENE) 13:32:15 437.125/150
PCSat 28 Aug 13:49:10 13:52:20 15° 317° (NW) 13:55:31 145.827
ISS 28 Aug 13:54:17 13:56:48 20° 23° (NNE) 13:59:19 145.825
VELOX 1 28 Aug 13:58:18 14:01:24 19° 294° (WNW) 14:04:30 145.980
CUBEBUG 1 28 Aug 13:58:46 14:01:17 15° 296° (WNW) 14:03:47 437.445
JAS-2 28 Aug 14:00:06 14:01:27 11° 273° (W) 14:02:49 435.910
50 SAT 28 Aug 14:00:31 14:01:46 11° 295° (WNW) 14:03:00 437.505
SPROUT 28 Aug 14:11:47 14:15:08 23° 292° (WNW) 14:18:28 437.525
DX 1 28 Aug 14:12:48 14:15:52 19° 294° (WNW) 14:18:56 434.975-435.025
SWISSCUBE 28 Aug 14:23:00 14:26:32 20° 94° (E) 14:30:03 437.505
TISAT 1 28 Aug 14:27:05 14:31:17 70° 284° (WNW) 14:35:26 437.305
ITAMSAT 1 28 Aug 14:38:01 14:43:03 53° 72° (ENE) 14:48:05 435.822/435.867
Gurwin Techsat 1B 28 Aug 14:39:06 14:44:12 47° 261° (W) 14:49:20 435.225
BEESAT 28 Aug 14:39:39 14:43:41 27° 96° (E) 14:47:42 436.000
O/OREOS (USA 219) 28 Aug 14:43:42 14:47:49 34° 298° (WNW) 14:51:58 437.305
AO-85 28 Aug 14:48:11 14:52:19 55° 242° (WSW) 14:56:09 145.980
GONETS M04 28 Aug 14:49:08 14:52:57 13° 302° (WNW) 14:56:47
AO-7 28 Aug 14:54:34 15:02:32 52° 64° (ENE) 15:10:31 29.400- 29.500
Oscar 19 28 Aug 15:04:48 15:06:54 12° 270° (W) 15:09:01 437.125/150
SRMSAT 28 Aug 15:11:25 15:11:32 10° 181° (S) 15:11:40 437.500
ITUPSAT 1 28 Aug 15:27:08 15:31:55 84° 103° (ESE) 15:36:42 437.325
ISS 28 Aug 15:30:16 15:33:32 66° 220° (SW) 15:36:46 145.825
SWISSCUBE 28 Aug 16:00:01 16:04:27 40° 290° (WNW) 16:08:52 437.505
KKS-1 28 Aug 16:10:12 16:13:56 26° 96° (E) 16:17:39 437.445
BEESAT 28 Aug 16:17:17 16:21:25 30° 292° (WNW) 16:25:33 436.000
ITAMSAT 1 28 Aug 16:19:23 16:22:49 18° 267° (W) 16:26:14 435.822/435.867
MOZHAYETS 4 28 Aug 16:22:02 16:26:28 48° 99° (E) 16:30:54
HORYU 2 28 Aug 16:29:26 16:33:25 33° 70° (ENE) 16:37:25 437.375
Cosmos 2491 28 Aug 16:31:34 16:34:52 13° 74° (ENE) 16:38:10 435.465 / 435.565
